Hatteras, NC

4:12 AM EDT on July 23, 2017 (GMT -0400)
Mitchell

Weather History for KHSE - May, 2013

Change the Weather History Date:

Saturday, May 18, 2013

  Actual Average Record
Temperature  
Mean Temperature 75 °F 68 °F  
Max Temperature 83 °F 74 °F 87 °F (1991)
Min Temperature 67 °F 61 °F 45 °F (1981)
Degree Days  
Heating Degree Days 0 1  
Month to date heating degree days 22 39  
Since 1 July heating degree days 2415 2573  
Cooling Degree Days 10 4  
Month to date cooling degree days 55 48  
Year to date cooling degree days 64 76  
Growing Degree Days 24 (Base 50)    
Moisture  
Dew Point 65 °F    
Average Humidity 78    
Maximum Humidity 93    
Minimum Humidity 62    
Precipitation  
Precipitation 0.00 in 0.11 in 1.19 in (1976)
Month to date precipitation 0.95 2.10  
Year to date precipitation 16.77 19.77  
Snow  
Snow 0.00 in - - ()
Month to date snowfall 0.0  
Since 1 July snowfall 0.0  
Snow Depth 0.00 in    
Sea Level Pressure  
Sea Level Pressure 30.17 in    
Wind  
Wind Speed 5 mph (SE)    
Max Wind Speed 14 mph    
Max Gust Speed 18 mph    
Visibility 10 miles    
Events      
T = Trace of Precipitation, MM = Missing Value Source: NWS Daily Summary

Daily Weather History Graph

Daily Weather History Graph

Search for Another Location

Airport or City:

Trip Planner

Search our weather history database for the weather conditions in past years. The results will help you decide how hot, cold, wet, or windy it might be!

Date:

Astronomy

May. 18, 2013 Rise Set
Actual Time 5:56 AM EDT 8:02 PM EDT
Civil Twilight 5:27 AM EDT 8:30 PM EDT
Nautical Twilight 4:53 AM EDT 9:05 PM EDT
Astronomical Twilight 4:15 AM EDT 9:42 PM EDT
Moon 1:18 PM EDT (5/18) 1:31 AM EDT (5/18)
Length of Visible Light 15h 03m
Length of Day
14h 06m
First Quarter, 55% of the Moon is Illuminated
May 18
First Quarter
May 25
Full
May 31
Last Quarter
Jun 8
New
Jun 16
First Quarter

Hourly Weather History & Observations

Time (EDT) Temp. Heat Index Dew Point Humidity Pressure Visibility Wind Dir Wind Speed Gust Speed Precip Events Conditions
12:51 AM 66.9 °F - 63.0 °F 87% 30.15 in 10.0 mi East 3.5 mph - N/A   Mostly Cloudy
1:51 AM 68.0 °F - 64.0 °F 87% 30.14 in 10.0 mi East 3.5 mph - N/A   Mostly Cloudy
2:51 AM 66.9 °F - 64.0 °F 90% 30.13 in 10.0 mi Calm Calm - N/A   Clear
3:51 AM 66.9 °F - 64.0 °F 90% 30.14 in 5.0 mi Calm Calm - N/A   Clear
4:51 AM 66.9 °F - 64.0 °F 90% 30.14 in 10.0 mi Calm Calm - N/A   Mostly Cloudy
5:24 AM 68.0 °F - 64.4 °F 88% 30.15 in 10.0 mi Calm Calm - N/A   Overcast
5:32 AM 68.0 °F - 64.4 °F 88% 30.15 in 10.0 mi Calm Calm - N/A   Overcast
5:51 AM 68.0 °F - 64.9 °F 90% 30.15 in 9.0 mi Calm Calm - N/A   Overcast
6:51 AM 69.1 °F - 66.0 °F 90% 30.17 in 9.0 mi Calm Calm - N/A   Clear
7:51 AM 72.0 °F - 66.0 °F 81% 30.18 in 6.0 mi ESE 3.5 mph - N/A   Haze
8:37 AM 73.4 °F - 64.4 °F 73% 30.19 in 10.0 mi ESE 5.8 mph - N/A   Mostly Cloudy
8:51 AM 72.0 °F - 64.0 °F 76% 30.19 in 10.0 mi SE 5.8 mph - N/A   Mostly Cloudy
9:24 AM 73.4 °F - 64.4 °F 73% 30.19 in 10.0 mi SSE 4.6 mph - N/A   Mostly Cloudy
9:51 AM 75.9 °F - 64.9 °F 69% 30.19 in 10.0 mi South 6.9 mph - N/A   Scattered Clouds
10:51 AM 77.0 °F - 64.9 °F 66% 30.21 in 10.0 mi South 3.5 mph - N/A   Mostly Cloudy
11:51 AM 78.1 °F - 64.9 °F 64% 30.20 in 10.0 mi Calm Calm - N/A   Clear
12:51 PM 78.1 °F - 66.0 °F 66% 30.19 in 10.0 mi SSW 5.8 mph - N/A   Clear
1:51 PM 79.0 °F - 66.9 °F 66% 30.18 in 10.0 mi South 6.9 mph - N/A   Clear
2:51 PM 80.1 °F 82.7 °F 68.0 °F 67% 30.16 in 10.0 mi South 5.8 mph - N/A   Clear
3:51 PM 81.0 °F 84.1 °F 69.1 °F 67% 30.15 in 10.0 mi SE 8.1 mph - N/A   Clear
4:51 PM 78.1 °F - 68.0 °F 71% 30.16 in 10.0 mi SE 5.8 mph - N/A   Clear
5:51 PM 77.0 °F - 68.0 °F 74% 30.16 in 10.0 mi SE 6.9 mph - N/A   Clear
6:51 PM 75.9 °F - 68.0 °F 76% 30.16 in 10.0 mi ESE 6.9 mph - N/A   Clear
7:51 PM 73.0 °F - 66.0 °F 79% 30.17 in 10.0 mi SE 8.1 mph - N/A   Clear
8:51 PM 72.0 °F - 63.0 °F 73% 30.17 in 10.0 mi ESE 9.2 mph - N/A   Mostly Cloudy
9:51 PM 72.0 °F - 66.0 °F 81% 30.18 in 10.0 mi SE 10.4 mph - N/A   Mostly Cloudy
10:51 PM 72.0 °F - 66.0 °F 81% 30.18 in 10.0 mi SE 9.2 mph - N/A   Partly Cloudy
11:51 PM 72.0 °F - 66.0 °F 81% 30.17 in 10.0 mi ESE 6.9 mph - N/A   Partly Cloudy